HAZ2846 ZBDT-ZSHC

Flight info

Callsign HAZ2846
Flight time N/A
Altitude 34100
Route MUGUT B458 IPLEV W45 SQ B208 CGO W129 KAMDA W128 FYG B208 HFE R343 UPLEL W95 SAPIN A470 IGRAT
Aircraft A321/M-SDE3FGHIRWY/LB1

Departure

Time 2026-05-07 12:06
Airport Datong Yungang International Airport (ZBDT)

Arrival

Time N/A
Airport Hangzhou Xiaoshan International Airport (ZSHC)
Time Latitude Longitude Altitude Speed Heading
2026-05-07 11:32 40.05766 113.48036 3483 ft 0 kts 221°
2026-05-07 11:55 40.05767 113.48036 3478 ft 1 kts 221°
2026-05-07 11:55 40.05785 113.48056 3477 ft 4 kts 218°
2026-05-07 11:55 40.05807 113.48077 3480 ft 4 kts 208°
2026-05-07 11:55 40.05830 113.48088 3481 ft 4 kts 173°
2026-05-07 11:56 40.05842 113.48085 3481 ft 2 kts 90°
2026-05-07 11:56 40.05842 113.48078 3481 ft 0 kts 89°
2026-05-07 11:59 40.05842 113.48079 3481 ft 1 kts 89°
2026-05-07 11:59 40.05833 113.48102 3481 ft 4 kts 132°
2026-05-07 11:59 40.05823 113.48113 3481 ft 0 kts 138°
2026-05-07 12:00 40.05815 113.48122 3480 ft 4 kts 138°
2026-05-07 12:00 40.05799 113.48141 3480 ft 1 kts 134°
2026-05-07 12:00 40.05788 113.48157 3480 ft 4 kts 133°
2026-05-07 12:00 40.05759 113.48199 3481 ft 8 kts 133°
2026-05-07 12:01 40.05718 113.48258 3483 ft 5 kts 131°
2026-05-07 12:01 40.05700 113.48297 3481 ft 6 kts 97°
2026-05-07 12:01 40.05725 113.48340 3482 ft 6 kts 42°
2026-05-07 12:01 40.05756 113.48377 3480 ft 6 kts 41°
2026-05-07 12:02 40.05786 113.48411 3481 ft 5 kts 41°
2026-05-07 12:02 40.05821 113.48453 3483 ft 10 kts 46°
2026-05-07 12:02 40.05812 113.48548 3482 ft 14 kts 128°
2026-05-07 12:02 40.05741 113.48659 3481 ft 18 kts 130°
2026-05-07 12:03 40.05651 113.48791 3482 ft 19 kts 131°
2026-05-07 12:03 40.05567 113.48915 3480 ft 17 kts 131°
2026-05-07 12:03 40.05487 113.49032 3481 ft 17 kts 131°
2026-05-07 12:03 40.05412 113.49141 3481 ft 9 kts 133°
2026-05-07 12:04 40.05366 113.49187 3484 ft 7 kts 158°
2026-05-07 12:04 40.05319 113.49217 3482 ft 9 kts 131°
2026-05-07 12:04 40.05349 113.49235 3481 ft 8 kts 320°
2026-05-07 12:04 40.05381 113.49178 3482 ft 6 kts 311°
2026-05-07 12:05 40.05382 113.49176 3481 ft 0 kts 311°
2026-05-07 12:05 40.05383 113.49174 3481 ft 2 kts 311°
2026-05-07 12:05 40.05468 113.49050 3481 ft 50 kts 311°
2026-05-07 12:05 40.05856 113.48481 3480 ft 115 kts 312°
2026-05-07 12:06 40.06504 113.47532 3484 ft 164 kts 311°
2026-05-07 12:06 40.07298 113.46386 3989 ft 166 kts 313°
2026-05-07 12:06 40.08218 113.45464 4697 ft 166 kts 325°
2026-05-07 12:06 40.09161 113.44608 5298 ft 165 kts 325°
2026-05-07 12:07 40.10141 113.43709 5490 ft 181 kts 325°
2026-05-07 12:07 40.11214 113.42709 5631 ft 197 kts 324°
2026-05-07 12:07 40.12381 113.41620 5758 ft 215 kts 324°
2026-05-07 12:07 40.13637 113.40453 5898 ft 235 kts 324°
2026-05-07 12:08 40.15002 113.39183 6258 ft 245 kts 324°
2026-05-07 12:08 40.16402 113.37894 6965 ft 246 kts 325°
2026-05-07 12:08 40.17820 113.36631 7684 ft 247 kts 332°
2026-05-07 12:08 40.19489 113.36077 8348 ft 251 kts
2026-05-07 12:09 40.21189 113.36636 9012 ft 258 kts 27°
2026-05-07 12:09 40.22535 113.38168 9660 ft 266 kts 53°
2026-05-07 12:09 40.23213 113.40433 10283 ft 275 kts 83°
2026-05-07 12:09 40.22964 113.42917 10877 ft 281 kts 112°
2026-05-07 12:10 40.21784 113.44965 11471 ft 286 kts 144°
2026-05-07 12:10 40.20051 113.46283 12033 ft 290 kts 152°
2026-05-07 12:10 40.18249 113.47509 12619 ft 294 kts 153°
2026-05-07 12:10 40.16441 113.48719 13215 ft 297 kts 152°
2026-05-07 12:11 40.14586 113.49961 13810 ft 301 kts 152°
2026-05-07 12:11 40.12708 113.51229 14338 ft 305 kts 152°
2026-05-07 12:11 40.10810 113.52518 14856 ft 309 kts 152°
2026-05-07 12:11 40.08883 113.53829 15369 ft 313 kts 152°
2026-05-07 12:12 40.06936 113.55154 15894 ft 317 kts 152°
2026-05-07 12:12 40.04973 113.56488 16415 ft 320 kts 152°
2026-05-07 12:12 40.03056 113.57787 16913 ft 324 kts 152°
2026-05-07 12:12 40.01068 113.59134 17428 ft 328 kts 152°
2026-05-07 12:13 39.99031 113.60514 17940 ft 332 kts 152°
2026-05-07 12:13 39.97163 113.61781 18399 ft 335 kts 152°
2026-05-07 12:13 39.95561 113.62867 18737 ft 338 kts 152°
2026-05-07 12:13 39.93498 113.64409 19148 ft 343 kts 143°
2026-05-07 12:14 39.91657 113.66442 19346 ft 355 kts 134°
2026-05-07 12:14 39.89845 113.68719 19472 ft 370 kts 134°
2026-05-07 12:14 39.87974 113.71070 19605 ft 385 kts 134°
2026-05-07 12:14 39.86006 113.73532 19730 ft 400 kts 134°
2026-05-07 12:15 39.83959 113.76084 19852 ft 413 kts 134°
2026-05-07 12:15 39.81842 113.78714 19974 ft 426 kts 134°
2026-05-07 12:15 39.79664 113.81414 20099 ft 438 kts 134°
2026-05-07 12:15 39.77426 113.84187 20229 ft 450 kts 134°
2026-05-07 12:16 39.75124 113.87037 20414 ft 459 kts 135°
2026-05-07 12:16 39.72823 113.89881 20738 ft 464 kts 135°
2026-05-07 12:16 39.70468 113.92787 21047 ft 469 kts 135°
2026-05-07 12:16 39.68093 113.95716 21390 ft 473 kts 135°
2026-05-07 12:17 39.65691 113.98664 21761 ft 478 kts 135°
2026-05-07 12:17 39.63263 114.01631 22137 ft 482 kts 135°
2026-05-07 12:17 39.60803 114.04628 22502 ft 486 kts 135°
2026-05-07 12:17 39.58327 114.07640 22856 ft 491 kts 135°
2026-05-07 12:18 39.55828 114.10682 23204 ft 495 kts 135°
2026-05-07 12:18 39.53310 114.13748 23528 ft 499 kts 135°
2026-05-07 12:18 39.50764 114.16846 23829 ft 503 kts 135°
2026-05-07 12:18 39.48206 114.19952 24117 ft 506 kts 135°
2026-05-07 12:19 39.45628 114.23078 24421 ft 509 kts 135°
2026-05-07 12:19 39.43025 114.26194 24720 ft 511 kts 137°
2026-05-07 12:19 39.40504 114.29428 25012 ft 512 kts 128°
2026-05-07 12:19 39.38127 114.32877 25292 ft 516 kts 137°
2026-05-07 12:20 39.35153 114.35460 25579 ft 516 kts 158°
2026-05-07 12:20 39.31772 114.36699 25846 ft 509 kts 179°
2026-05-07 12:20 39.28295 114.36502 26118 ft 494 kts 200°
2026-05-07 12:20 39.25180 114.34920 26377 ft 472 kts 221°
2026-05-07 12:21 39.22786 114.32208 26656 ft 447 kts 242°
2026-05-07 12:21 39.21388 114.28786 26945 ft 422 kts 263°
2026-05-07 12:21 39.20850 114.25117 27230 ft 414 kts 270°
2026-05-07 12:21 39.20434 114.21431 27541 ft 418 kts 267°
2026-05-07 12:22 39.19713 114.17766 27899 ft 427 kts 259°
2026-05-07 12:22 39.18551 114.14203 28217 ft 437 kts 251°
2026-05-07 12:22 39.16695 114.10993 28587 ft 460 kts 231°
2026-05-07 12:22 39.14001 114.08709 28954 ft 483 kts 212°
2026-05-07 12:23 39.10936 114.07455 29296 ft 497 kts 200°
2026-05-07 12:23 39.07505 114.06776 29666 ft 503 kts 194°
2026-05-07 12:23 39.04168 114.06343 30040 ft 502 kts 194°
2026-05-07 12:23 39.00707 114.05797 30223 ft 497 kts 198°
2026-05-07 12:24 38.97336 114.05000 30260 ft 490 kts 202°
2026-05-07 12:24 38.90852 114.02720 30257 ft 478 kts 207°
2026-05-07 12:25 38.85276 114.00447 30259 ft 477 kts 207°
2026-05-07 12:25 38.78925 113.98016 30253 ft 478 kts 206°
2026-05-07 12:26 38.72521 113.95782 30252 ft 478 kts 205°
2026-05-07 12:26 38.66097 113.93595 30256 ft 476 kts 205°
2026-05-07 12:27 38.59719 113.91371 30256 ft 474 kts 206°
2026-05-07 12:27 38.53406 113.89118 30256 ft 473 kts 206°
2026-05-07 12:28 38.47075 113.86870 30252 ft 472 kts 206°
2026-05-07 12:28 38.41770 113.85004 30260 ft 472 kts 206°
2026-05-07 12:29 38.34418 113.82475 30260 ft 470 kts 206°
2026-05-07 12:29 38.29141 113.80668 30260 ft 469 kts 206°
2026-05-07 12:30 38.23052 113.78579 30258 ft 469 kts 207°
2026-05-07 12:30 38.16770 113.76416 30259 ft 468 kts 207°
2026-05-07 12:31 38.10489 113.74254 30259 ft 467 kts 207°
2026-05-07 12:31 38.04215 113.72099 30272 ft 467 kts 207°
2026-05-07 12:32 37.97945 113.69954 30270 ft 466 kts 207°
2026-05-07 12:32 37.91687 113.67799 30278 ft 466 kts 207°
2026-05-07 12:33 37.82313 113.64585 30280 ft 465 kts 207°
2026-05-07 12:33 37.76071 113.62462 30285 ft 464 kts 207°
2026-05-07 12:34 37.69841 113.60343 30291 ft 463 kts 207°
2026-05-07 12:34 37.63617 113.58217 30293 ft 463 kts 207°
2026-05-07 12:35 37.57392 113.56103 30297 ft 464 kts 207°
2026-05-07 12:35 37.51156 113.53998 30300 ft 464 kts 207°
2026-05-07 12:36 37.44919 113.51896 30307 ft 463 kts 207°
2026-05-07 12:36 37.38986 113.49888 30306 ft 463 kts 207°
2026-05-07 12:37 37.32780 113.47793 30309 ft 462 kts 207°
2026-05-07 12:37 37.26590 113.45701 30318 ft 462 kts 206°
2026-05-07 12:38 37.20448 113.43633 30318 ft 461 kts 206°
2026-05-07 12:38 37.14251 113.41559 30317 ft 460 kts 206°
2026-05-07 12:39 37.08065 113.39491 30317 ft 460 kts 206°
2026-05-07 12:39 37.01888 113.37428 30315 ft 459 kts 206°
2026-05-07 12:40 36.95725 113.35364 30309 ft 458 kts 206°
2026-05-07 12:40 36.89553 113.33303 30309 ft 459 kts 205°
2026-05-07 12:41 36.83421 113.31270 30313 ft 458 kts 205°
2026-05-07 12:41 36.77268 113.29232 30310 ft 457 kts 205°
2026-05-07 12:42 36.71121 113.27190 30306 ft 457 kts 205°
2026-05-07 12:42 36.64985 113.25151 30309 ft 456 kts 205°
2026-05-07 12:43 36.58847 113.23118 30306 ft 456 kts 205°
2026-05-07 12:43 36.52715 113.21091 30303 ft 456 kts 204°
2026-05-07 12:44 36.46576 113.19067 30308 ft 456 kts 204°
2026-05-07 12:44 36.40432 113.17045 30302 ft 456 kts 204°
2026-05-07 12:45 36.34312 113.15041 30301 ft 457 kts 204°
2026-05-07 12:45 36.28132 113.13134 30294 ft 463 kts 198°
2026-05-07 12:46 36.24892 113.12802 30294 ft 475 kts 188°
2026-05-07 12:46 36.21560 113.13148 30297 ft 486 kts 178°
2026-05-07 12:46 36.18255 113.14225 30299 ft 498 kts 168°
2026-05-07 12:47 36.08114 113.18837 30301 ft 496 kts 168°
2026-05-07 12:47 36.01623 113.21723 30302 ft 495 kts 168°
2026-05-07 12:48 35.95222 113.24574 30308 ft 494 kts 168°
2026-05-07 12:48 35.88773 113.27460 30318 ft 493 kts 168°
2026-05-07 12:49 35.82374 113.30325 30311 ft 492 kts 168°
2026-05-07 12:49 35.75996 113.33177 30313 ft 492 kts 168°
2026-05-07 12:50 35.69561 113.36045 30312 ft 492 kts 168°
2026-05-07 12:50 35.63119 113.38917 30316 ft 493 kts 168°
2026-05-07 12:51 35.56658 113.41785 30310 ft 494 kts 168°
2026-05-07 12:51 35.50192 113.44649 30309 ft 495 kts 168°
2026-05-07 12:52 35.43734 113.47511 30297 ft 495 kts 168°
2026-05-07 12:52 35.37336 113.50362 30297 ft 495 kts 168°
2026-05-07 12:53 35.30853 113.53247 30295 ft 496 kts 168°
2026-05-07 12:53 35.24342 113.56131 30296 ft 497 kts 168°
2026-05-07 12:54 35.17839 113.59016 30284 ft 497 kts 168°
2026-05-07 12:54 35.11328 113.61907 30278 ft 497 kts 168°
2026-05-07 12:55 35.04816 113.64782 30278 ft 497 kts 168°
2026-05-07 12:55 34.98309 113.67651 30279 ft 497 kts 168°
2026-05-07 12:56 34.91799 113.70520 30277 ft 497 kts 168°
2026-05-07 12:56 34.85327 113.73334 30281 ft 495 kts 169°